Theta_e
308 306 304 303 303 303 303 303 304 303 303 303 303 303 302 302 302 302 303 304 305 306 307 308 309 310 310 311 311 311 311 309 311 315 317 321 326 327 332 332 334 334 335
307 306 304 303 302 302 303 303 302 302 302 302 302 302 302 301 302 301 302 302 303 304 305 306 306 307 308 309 310 308 308 309 309 314 316 319 322 325 328 329 333 332 333
309 306 304 303 302 302 302 302 302 301 302 301 301 301 301 302 302 301 301 301 301 302 304 305 306 307 308 308 308 308 306 307 309 307 311 317 321 321 324 329 331 334 332
309 307 304 303 301 301 301 301 301 301 301 301 300 300 301 301 300 301 301 301 301 301 301 303 304 306 307 307 308 308 307 307 307 307 307 313 315 319 325 328 332 332 332
309 306 304 302 300 301 301 301 300 301 301 300 300 299 299 300 300 300 300 300 300 300 300 300 301 302 305 307 307 307 308 306 305 306 307 308 310 314 320 323 326 326 330
308 305 302 301 300 300 300 300 300 299 300 300 299 299 299 299 299 299 299 299 299 299 299 299 300 302 304 305 306 306 306 306 305 307 307 308 309 311 317 320 322 326 326
306 304 302 301 300 299 299 299 299 298 298 298 298 298 298 298 298 298 298 298 298 298 298 299 299 300 302 303 304 304 305 306 306 307 306 307 308 308 310 315 317 320 326
306 304 302 301 299 298 298 298 298 297 297 297 297 297 296 297 297 297 297 296 296 296 297 298 299 299 301 302 302 302 304 304 305 306 307 305 307 308 309 311 316 317 319
305 303 301 300 298 298 298 297 297 296 296 296 296 296 296 296 296 295 295 295 295 295 296 297 298 298 298 299 299 300 302 302 303 304 303 305 306 309 311 311 313 316 318
304 302 300 299 298 297 297 296 295 295 295 295 296 296 295 295 294 295 293 293 294 294 295 296 296 297 297 297 296 297 299 299 302 302 301 302 306 309 311 312 313 314 316
304 302 300 298 297 296 295 294 294 295 295 295 295 295 295 295 294 295 294 292 292 292 293 295 295 296 296 296 294 295 295 294 298 301 298 297 299 305 310 312 315 314 315
304 302 299 297 296 295 294 294 294 294 294 294 294 294 294 294 292 291 293 291 291 291 291 294 295 294 294 293 293 293 294 293 293 298 300 300 299 299 306 310 313 314 315
303 301 298 296 295 294 294 294 293 293 293 293 293 292 292 292 290 290 292 290 290 290 291 291 292 292 292 290 291 291 290 292 294 296 299 300 300 300 303 308 311 313 314
302 300 296 295 294 294 293 294 293 292 293 292 291 290 290 290 290 291 290 289 288 288 288 290 290 289 288 289 290 288 289 291 293 296 298 298 299 299 301 306 311 313 314
302 299 295 295 294 293 294 293 292 292 292 291 290 289 288 288 288 290 288 288 287 287 287 287 288 287 288 288 287 287 288 290 293 296 293 295 297 299 299 299 308 313 316
301 298 295 294 294 295 293 293 291 291 290 289 289 288 287 287 288 287 287 287 287 287 286 286 286 286 286 286 287 287 286 290 289 292 292 291 296 298 296 301 307 311 310
299 296 293 295 295 293 292 290 289 289 288 287 287 287 287 288 286 286 286 286 285 286 285 285 285 285 285 285 287 287 287 287 288 289 290 292 291 294 295 300 304 310 314
297 294 296 298 293 291 290 289 288 287 287 287 287 286 287 285 285 286 286 285 284 284 284 285 285 284 284 285 286 287 286 286 286 288 288 289 290 290 291 295 302 307 312
295 297 297 293 290 288 288 287 287 287 287 286 286 285 284 284 284 284 285 284 284 284 284 284 284 283 283 284 285 284 284 285 286 286 287 287 287 288 288 291 297 303 310
293 292 292 290 287 287 286 286 286 286 286 285 285 284 283 284 284 283 284 283 284 283 283 283 283 282 282 283 283 284 283 283 285 286 285 286 285 286 288 291 294 296 306
290 289 288 286 286 286 286 286 286 285 285 285 285 284 283 283 283 282 283 283 283 283 282 282 282 281 281 282 284 284 283 282 283 283 283 284 285 285 285 288 291 292 300
288 287 287 286 285 285 286 286 285 284 284 285 284 284 283 283 282 282 281 282 281 281 281 281 281 280 280 282 283 284 284 284 283 282 282 283 285 284 285 287 289 294 302
287 286 286 285 285 284 284 284 283 283 284 284 284 283 282 282 282 281 280 280 279 279 279 279 279 279 279 280 281 282 283 284 284 283 283 284 285 284 284 286 289 296 302
286 285 285 285 284 284 283 283 283 282 283 283 282 282 282 281 281 280 279 279 277 277 277 277 277 278 278 278 279 280 281 282 283 283 283 282 284 282 281 284 286 289 294
285 285 284 284 283 283 282 282 282 281 282 281 281 281 281 280 280 280 278 277 276 275 275 275 275 276 276 276 276 279 279 280 281 282 281 282 281 282 282 282 283 284 289
283 283 283 283 282 282 281 281 281 280 280 280 280 279 280 279 279 279 279 278 276 275 274 273 273 274 274 274 275 278 279 279 280 279 278 279 278 277 278 279 280 283 284
Wind_Speed
17 12 8 7 5 4 3 4 5 7 8 10 12 13 14 13 13 14 15 15 17 18 19 17 19 19 19 22 23 26 26 22 18 21 25 31 37 40 39 40 40 33 30
18 14 9 8 6 4 4 4 5 7 8 10 12 13 14 12 13 15 16 16 17 18 18 19 19 20 21 20 20 21 23 23 16 16 20 25 30 33 33 37 41 43 35
21 16 10 7 5 5 4 4 4 7 9 12 12 13 11 10 11 16 15 19 19 19 20 20 20 20 21 22 22 21 20 22 24 18 14 12 24 27 28 29 33 44 43
21 16 11 7 6 5 3 3 4 7 10 12 13 14 13 13 16 15 17 19 20 21 20 21 21 22 22 21 21 21 21 20 26 21 19 21 28 21 18 19 23 31 39
21 17 12 8 6 5 3 3 5 7 10 12 13 12 13 13 12 14 17 18 19 21 22 21 21 22 22 22 21 22 23 22 24 24 26 26 25 33 34 31 32 32 28
19 16 11 8 5 4 3 3 5 7 10 12 13 14 15 15 14 14 16 17 20 20 21 22 23 23 24 24 24 24 24 24 25 26 26 28 24 21 27 36 40 34 35
21 17 12 8 5 2 2 4 5 7 10 12 13 15 16 15 15 15 17 19 18 19 21 24 24 24 23 24 26 27 25 23 25 26 28 28 29 30 29 31 41 36 28
19 16 12 8 4 2 2 4 6 8 11 13 14 15 15 14 14 14 17 17 18 21 25 25 26 25 23 24 25 29 27 26 25 26 28 31 30 29 31 32 31 40 42
19 16 11 8 5 2 4 6 8 10 13 15 16 16 16 16 16 17 16 17 19 21 24 25 25 24 24 24 26 28 29 29 28 28 32 30 31 34 35 36 34 36 37
19 16 12 8 5 2 4 7 10 12 14 16 17 18 17 17 19 19 18 20 22 24 25 25 25 25 23 24 26 28 28 28 30 28 31 35 32 35 37 40 38 40 41
19 16 12 9 5 1 3 7 10 12 14 16 18 18 19 19 20 21 20 21 23 24 25 25 26 25 24 24 25 26 27 27 30 32 31 33 32 36 39 39 43 43 43
20 16 12 8 4 0 4 8 11 13 15 16 18 18 19 20 20 21 22 21 23 23 24 24 25 25 24 25 25 28 28 30 33 34 36 37 36 36 41 41 45 44 44
18 15 14 10 5 2 5 8 11 13 15 17 17 17 18 19 19 21 23 22 23 23 24 24 24 25 24 25 26 25 30 34 37 38 38 40 40 41 38 43 39 47 47
20 16 13 9 4 2 6 9 11 13 16 16 16 17 19 19 20 22 23 22 23 24 24 24 24 24 24 25 23 31 35 36 39 40 39 38 39 38 34 37 43 39 47
20 16 14 9 3 3 7 11 12 13 15 14 15 17 18 18 19 22 22 22 23 22 24 24 25 24 26 21 31 34 36 40 41 39 36 36 38 36 36 37 41 36 41
20 16 12 8 1 5 9 11 12 13 12 12 13 14 16 18 22 21 21 21 22 22 23 22 24 27 26 26 29 31 36 38 36 39 36 35 38 35 32 31 36 51 47
19 16 12 6 1 5 8 9 10 10 10 11 12 14 17 20 21 20 21 22 22 23 23 23 25 26 25 29 29 31 35 33 34 35 35 40 35 36 34 32 31 42 47
21 16 10 2 2 5 7 8 9 9 10 11 13 14 19 18 18 19 22 22 22 23 23 23 25 26 26 31 32 34 35 33 31 33 32 34 37 34 35 37 37 38 45
17 14 7 4 1 3 5 6 7 9 10 13 14 14 16 18 19 19 21 22 23 23 23 22 25 25 28 33 35 38 36 36 36 34 30 30 32 34 36 36 42 41 45
15 12 7 3 2 4 5 6 8 10 11 12 13 13 15 16 17 19 20 22 22 21 22 23 24 25 29 34 36 37 35 37 40 35 31 30 31 33 36 35 37 46 48
14 11 8 7 6 6 7 7 8 10 11 12 12 13 15 15 17 19 18 20 21 21 23 23 24 25 30 34 37 38 37 36 38 33 34 32 27 28 29 27 35 41 42
12 10 9 8 7 7 7 8 10 10 10 11 12 13 14 16 18 17 18 18 21 22 24 25 26 27 32 36 38 38 36 33 33 33 32 32 27 27 27 22 24 39 36
11 10 10 9 8 9 9 9 10 11 10 10 12 14 15 15 16 17 18 19 21 23 25 27 28 32 33 35 37 37 36 35 33 32 33 35 31 32 32 28 19 14 19
12 11 10 10 9 9 9 10 10 11 10 12 13 13 14 15 16 16 17 18 21 23 25 28 28 31 34 36 38 36 38 38 37 38 41 40 41 41 38 41 34 23 6
12 11 10 10 10 9 9 10 11 12 11 12 13 14 14 16 15 15 16 17 18 21 23 26 25 28 32 36 34 31 35 39 39 43 46 49 50 51 52 49 46 38 26
12 12 11 10 10 9 9 11 12 13 13 12 13 15 13 14 15 15 15 17 19 20 23 24 25 25 26 30 32 29 32 36 39 45 50 52 54 52 52 54 51 46 40
Wind_Direction
187 183 186 202 209 231 255 276 290 312 329 332 330 338 338 340 339 335 335 335 336 336 334 333 331 323 314 312 310 309 304 292 283 284 277 265 259 260 267 256 252 241 240
191 186 185 201 215 231 250 275 309 328 335 336 336 338 338 334 335 338 339 339 338 335 331 329 328 327 321 315 312 307 306 300 299 287 285 274 262 261 260 263 252 252 240
196 191 186 190 205 227 246 273 319 336 339 342 343 342 335 328 325 336 339 337 338 336 330 328 328 327 326 321 313 307 303 309 301 283 264 286 261 267 263 264 253 249 247
198 193 186 177 203 228 257 302 323 337 340 343 345 342 337 333 330 336 337 340 338 336 331 327 324 324 325 326 319 313 304 304 298 291 276 260 264 279 287 269 252 250 249
195 191 181 174 193 223 252 295 332 338 341 339 340 343 334 332 330 329 333 335 337 336 333 328 324 320 321 322 320 314 306 295 285 287 286 278 267 257 264 275 280 265 258
194 190 177 175 181 225 263 312 340 337 338 340 339 339 338 337 331 330 335 331 333 331 330 329 326 324 321 322 321 314 306 294 287 288 281 273 269 266 258 261 268 272 261
190 187 178 174 172 215 291 326 336 337 338 338 338 338 340 338 335 331 330 331 327 326 327 329 330 325 319 317 316 315 313 304 293 287 287 277 271 271 264 263 265 268 272
190 183 175 173 177 224 301 320 331 342 336 336 338 340 339 336 335 325 328 327 324 324 327 327 327 326 321 317 313 308 313 306 293 285 283 278 273 267 267 261 266 265 266
185 178 174 172 180 213 295 323 336 336 332 334 336 335 335 334 333 328 327 323 326 324 325 326 322 321 317 318 314 309 310 309 305 293 279 280 274 270 265 262 255 256 259
182 177 175 177 189 245 314 327 334 334 334 334 333 332 332 331 330 333 330 330 330 329 327 324 320 317 316 315 311 310 310 306 306 300 290 288 278 264 264 265 253 255 252
183 180 178 177 188 237 335 336 334 334 334 335 333 332 330 332 332 333 334 330 331 329 327 326 322 320 317 315 309 311 309 304 305 302 298 291 286 276 261 259 258 256 251
183 181 177 167 164 349 338 341 336 334 335 335 333 333 333 336 337 334 336 332 330 330 327 326 323 321 319 315 313 313 309 308 306 306 303 299 295 282 270 251 253 256 253
180 176 180 187 196 285 333 344 341 340 340 338 338 337 337 339 338 336 335 335 332 330 329 328 325 322 322 316 315 312 309 309 308 309 310 306 301 290 275 257 251 257 256
185 178 186 187 196 315 345 341 340 338 338 341 342 337 339 340 337 339 338 335 332 331 331 332 328 324 322 320 316 314 313 310 309 310 309 305 304 297 284 266 253 262 256
187 182 178 185 194 342 337 342 330 333 338 341 343 341 340 336 339 340 340 335 333 335 332 333 332 330 329 325 318 319 316 312 313 311 307 304 303 292 279 270 257 258 250
180 174 161 176 203 329 345 328 332 338 344 342 347 343 338 337 342 342 341 335 338 337 333 334 336 333 332 328 327 325 319 316 314 313 310 306 306 304 291 269 254 243 257
173 166 154 164 1 329 318 332 337 344 345 346 355 345 342 347 346 345 341 341 337 335 338 341 337 336 337 334 336 335 327 322 316 315 312 311 307 308 303 286 255 241 242
163 154 155 175 258 307 329 341 350 353 357 353 360 348 347 348 347 347 345 341 343 339 341 339 339 337 339 342 348 343 336 330 322 318 315 311 310 310 311 297 276 251 242
151 151 164 176 292 2 2 13 11 6 4 4 356 349 351 350 351 345 347 345 346 343 341 339 339 341 343 350 353 347 342 335 332 327 323 316 315 312 307 297 288 273 245
133 135 146 137 83 41 40 39 21 12 5 2 356 355 354 355 351 351 350 351 344 342 343 343 343 348 347 355 355 352 346 339 336 337 329 325 318 314 308 299 289 281 259
128 131 123 107 85 60 55 47 26 15 5 1 358 359 3 358 356 358 353 349 347 346 348 347 349 351 355 358 1 360 354 347 342 340 338 331 331 334 323 295 280 277 262
121 119 115 100 79 66 61 42 25 11 7 5 7 6 3 5 358 354 355 355 355 354 353 353 353 355 360 3 4 2 1 356 355 350 348 346 352 357 348 330 292 278 252
123 120 114 100 80 66 58 46 28 18 17 14 15 14 10 11 2 3 358 1 1 359 357 355 355 355 357 359 3 4 6 6 7 10 11 12 6 11 6 2 344 287 221
124 118 111 101 88 71 58 48 33 27 25 24 21 19 12 19 8 8 8 5 5 4 2 359 359 355 356 357 1 3 8 11 13 18 19 21 21 17 15 21 19 18 37
123 117 113 105 93 79 61 47 37 33 33 30 26 25 17 15 12 9 5 14 11 10 6 3 1 360 357 356 358 6 13 15 18 21 23 22 23 21 20 20 24 25 31
126 120 115 108 95 80 64 50 43 38 40 35 30 25 20 16 13 11 9 1 8 12 15 12 9 6 2 0 3 15 20 20 22 26 24 22 21 15 15 17 13 26 30